FW4645 Weather Reports


time (UTC)temp
C
wind
direction
speed
KPH
gust
KPH
rain 1hr
cm
rain 24hr
cm
rain mn
cm
humidity
%
barometer
mb
20260507170118 20 125 0.0 1.6 0.00 0.00 0.00 74 1015.1
20260507165616 19 125 0.0 0.0 0.00 0.00 0.00 76 1015.2
20260507165114 18 125 0.0 0.0 0.00 0.00 0.00 77 1015.2
20260507164613 18 124 0.0 0.0 0.00 0.00 0.00 78 1015.2
20260507164337 18 49 0.0 0.0 0.00 0.00 0.00 80 1015.4
20260507163608 18 49 0.0 0.0 0.00 0.00 0.00 80 1015.4
20260507163327 17 49 0.0 0.0 0.00 0.00 0.00 83 1015.5
20260507162609 17 49 0.0 0.0 0.00 0.00 0.00 85 1015.5
20260507162329 16 49 0.0 0.0 0.00 0.00 0.00 85 1015.5
20260507161608 16 49 0.0 0.0 0.00 0.00 0.00 86 1015.5
20260507161105 16 49 0.0 0.0 0.00 0.00 0.00 87 1015.5
20260507160606 16 49 0.0 0.0 0.00 0.00 0.00 88 1015.5
20260507160333 15 49 0.0 4.8 0.00 0.00 0.00 88 1015.5
20260507155604 15 49 0.0 4.8 0.00 0.00 0.00 88 1015.5
20260507155543 15 50 0.0 0.0 0.00 0.00 0.00 90 1015.6
20260507154559 15 123 0.0 0.0 0.00 0.00 0.00 91 1015.6
20260507154053 15 123 0.0 0.0 0.00 0.00 0.00 92 1015.6
20260507153547 15 101 0.0 0.0 0.00 0.00 0.00 92 1015.5
20260507153259 14 101 0.0 0.0 0.00 0.00 0.00 92 1015.5
20260507152757 14 90 0.0 0.0 0.00 0.00 0.00 92 1015.4
20260507152245 13 90 0.0 0.0 0.00 0.00 0.00 92 1015.4
20260507151523 13 90 0.0 0.0 0.00 0.00 0.00 92 1015.4
20260507151016 13 90 0.0 0.0 0.00 0.00 0.00 91 1015.4
20260507150510 13 90 0.0 0.0 0.00 0.00 0.00 91 1015.3
20260507150006 13 90 0.0 0.0 0.00 0.00 0.00 91 1015.3
20260507145458 13 90 0.0 0.0 0.00 0.00 0.00 92 1015.3
20260507144952 13 90 0.0 0.0 0.00 0.00 0.00 92 1015.3
20260507144446 13 90 0.0 0.0 0.00 0.00 0.00 91 1015.4
20260507143941 13 25 0.0 0.0 0.00 0.00 0.00 92 1015.3
20260507143435 13 17 0.0 0.0 0.00 0.00 0.00 92 1015.3
20260507142928 13 17 0.0 0.0 0.00 0.00 0.00 92 1015.2
20260507142423 12 17 0.0 0.0 0.00 0.00 0.00 92 1015.2
20260507141917 12 17 0.0 0.0 0.00 0.00 0.00 92 1015.2
20260507141413 12 346 0.0 0.0 0.00 0.00 0.00 92 1015.1
20260507141350 12 346 0.0 0.0 0.00 0.00 0.00 92 1015.0
20260507140412 12 346 0.0 0.0 0.00 0.00 0.00 92 1015.0
20260507135912 12 346 0.0 0.0 0.00 0.00 0.00 92 1015.0
20260507135412 12 346 0.0 0.0 0.00 0.00 0.00 92 1015.0
20260507135133 12 346 0.0 0.0 0.00 0.00 0.00 91 1014.9
20260507134411 11 346 0.0 0.0 0.00 0.00 0.00 91 1014.9
20260507133912 11 346 0.0 0.0 0.00 0.00 0.00 91 1014.9
20260507133411 11 346 0.0 0.0 0.00 0.00 0.00 91 1014.9
20260507132910 11 346 0.0 0.0 0.00 0.00 0.00 91 1014.9
20260507132411 11 346 0.0 0.0 0.00 0.00 0.00 90 1014.9
20260507131908 11 346 0.0 0.0 0.00 0.00 0.00 90 1014.8
20260507131409 11 346 0.0 0.0 0.00 0.00 0.00 90 1014.9
20260507130907 11 346 0.0 0.0 0.00 0.00 0.00 90 1014.9
20260507130409 10 346 0.0 0.0 0.00 0.00 0.00 89 1014.9
20260507130128 10 346 0.0 0.0 0.00 0.00 0.00 89 1014.8
20260507125407 10 348 0.0 0.0 0.00 0.00 0.00 89 1014.7
20260507124905 10 348 0.0 0.0 0.00 0.00 0.00 89 1014.7
20260507124402 10 348 0.0 0.0 0.00 0.00 0.00 89 1014.6
20260507123904 10 348 0.0 0.0 0.00 0.00 0.00 88 1014.5
20260507123403 10 348 0.0 0.0 0.00 0.00 0.00 88 1014.4
20260507122903 10 348 0.0 0.0 0.00 0.00 0.00 89 1014.5
20260507122623 10 348 0.0 0.0 0.00 0.00 0.00 89 1014.6
20260507122129 11 348 0.0 0.0 0.00 0.00 0.00 89 1014.5
20260507121405 11 348 0.0 0.0 0.00 0.00 0.00 89 1014.4
20260507120904 11 348 0.0 0.0 0.00 0.00 0.00 89 1014.5
20260507120401 11 348 0.0 0.0 0.00 0.00 0.00 89 1014.5
20260507115859 10 348 0.0 0.0 0.00 0.00 0.00 88 1014.5
20260507115359 10 348 0.0 0.0 0.00 0.00 0.00 88 1014.5
20260507114900 10 348 0.0 0.0 0.00 0.00 0.00 88 1014.4
20260507114358 10 348 0.0 0.0 0.00 0.00 0.00 88 1014.4
20260507113859 10 348 0.0 0.0 0.00 0.00 0.00 87 1014.5
20260507113400 11 348 0.0 0.0 0.00 0.00 0.00 87 1014.5
20260507112859 11 348 0.0 0.0 0.00 0.00 0.00 87 1014.4
20260507112400 11 348 0.0 0.0 0.00 0.00 0.00 87 1014.5
20260507111858 11 348 0.0 0.0 0.00 0.00 0.00 87 1014.5
20260507111400 11 348 0.0 0.0 0.00 0.00 0.00 87 1014.6
20260507110859 11 348 0.0 0.0 0.00 0.00 0.00 87 1014.6
20260507110400 11 348 0.0 0.0 0.00 0.00 0.00 87 1014.6
20260507105858 11 348 0.0 0.0 0.00 0.00 0.00 87 1014.6
20260507105400 11 348 0.0 0.0 0.00 0.00 0.00 87 1014.6
20260507104858 11 348 0.0 0.0 0.00 0.00 0.00 87 1014.7
20260507104359 11 348 0.0 0.0 0.00 0.00 0.00 87 1014.7
20260507103859 11 348 0.0 0.0 0.00 0.00 0.00 87 1014.7
20260507103359 11 348 0.0 0.0 0.00 0.00 0.00 87 1014.7
20260507102900 11 348 0.0 0.0 0.00 0.00 0.00 87 1014.7
20260507102359 11 348 0.0 0.0 0.00 0.00 0.00 87 1014.8
20260507101858 11 348 0.0 0.0 0.00 0.00 0.00 87 1014.9
20260507101359 11 348 0.0 0.0 0.00 0.00 0.00 86 1014.9
20260507100900 11 348 0.0 0.0 0.00 0.00 0.00 87 1014.9
20260507100629 11 348 0.0 0.0 0.00 0.00 0.00 86 1015.0
20260507095858 11 348 0.0 0.0 0.00 0.00 0.00 86 1015.0
20260507095359 11 348 0.0 0.0 0.00 0.00 0.00 86 1015.0
20260507094853 11 348 0.0 0.0 0.00 0.00 0.00 86 1015.0
20260507094616 11 348 0.0 0.0 0.00 0.00 0.00 87 1015.0
20260507093843 11 348 0.0 0.0 0.00 0.00 0.00 86 1015.1
20260507093335 11 348 0.0 0.0 0.00 0.00 0.00 86 1015.1
20260507092829 11 348 0.0 0.0 0.00 0.00 0.00 86 1015.2
20260507092545 11 348 0.0 0.0 0.00 0.00 0.00 86 1015.1
20260507091818 11 348 0.0 0.0 0.00 0.00 0.00 86 1015.2
20260507091543 11 348 0.0 0.0 0.00 0.00 0.00 87 1015.2
20260507090805 11 348 0.0 0.0 0.00 0.00 0.00 87 1015.3
20260507090300 11 348 0.0 0.0 0.00 0.00 0.00 86 1015.4
20260507085754 11 348 0.0 0.0 0.00 0.00 0.00 86 1015.3
20260507085248 11 348 0.0 0.0 0.00 0.00 0.00 86 1015.4
20260507084741 11 348 0.0 0.0 0.00 0.00 0.00 85 1015.5
20260507084235 11 348 0.0 0.0 0.00 0.00 0.00 86 1015.6
20260507083730 11 348 0.0 0.0 0.00 0.00 0.00 86 1015.7
20260507083448 11 348 0.0 0.0 0.00 0.00 0.00 86 1015.7
20260507082717 11 348 0.0 0.0 0.00 0.00 0.00 86 1015.7
20260507082211 11 348 0.0 0.0 0.00 0.00 0.00 85 1015.7
20260507081705 11 348 0.0 0.0 0.00 0.00 0.00 85 1015.7
20260507081159 11 348 0.0 0.0 0.00 0.00 0.00 85 1015.8
20260507080654 11 348 0.0 0.0 0.00 0.00 0.00 85 1015.8
20260507080148 11 348 0.0 0.0 0.00 0.00 0.00 85 1015.8
20260507075642 11 348 0.0 0.0 0.00 0.00 0.00 85 1015.8
20260507075136 11 348 0.0 0.0 0.00 0.00 0.00 84 1015.8
20260507074630 11 348 0.0 0.0 0.00 0.00 0.00 84 1015.8
20260507074123 11 348 0.0 0.0 0.00 0.00 0.00 84 1015.9
20260507073930 11 348 0.0 0.0 0.00 0.00 0.00 84 1016.0
20260507072605 11 348 0.0 0.0 0.00 0.00 0.00 84 1015.9
20260507072100 12 348 0.0 0.0 0.00 0.00 0.00 84 1015.9
20260507071819 12 348 0.0 0.0 0.00 0.00 0.00 84 1015.9
20260507071047 12 348 0.0 0.0 0.00 0.00 0.00 84 1015.9
20260507070542 12 348 0.0 0.0 0.00 0.00 0.00 83 1016.0
20260507070036 12 348 0.0 0.0 0.00 0.00 0.00 84 1016.0
20260507065536 12 348 0.0 0.0 0.00 0.00 0.00 84 1016.0
20260507065033 12 348 0.0 0.0 0.00 0.00 0.00 84 1016.1
20260507064531 12 348 0.0 0.0 0.00 0.00 0.00 84 1016.0
20260507064249 12 348 0.0 0.0 0.00 0.00 0.00 84 1016.2
20260507063531 12 348 0.0 0.0 0.00 0.00 0.00 84 1016.2
20260507063030 12 348 0.0 0.0 0.00 0.00 0.00 84 1016.1
20260507062528 12 348 0.0 0.0 0.00 0.00 0.00 84 1016.1
20260507062025 12 348 0.0 0.0 0.00 0.00 0.00 83 1016.1
20260507061529 12 348 0.0 0.0 0.00 0.00 0.00 82 1016.2
20260507061021 12 348 0.0 0.0 0.00 0.00 0.00 82 1016.2
20260507060519 12 348 0.0 0.0 0.00 0.00 0.00 82 1016.2
20260507060018 12 348 0.0 0.0 0.00 0.00 0.00 83 1016.1
20260507055520 13 348 0.0 0.0 0.00 0.00 0.00 83 1016.2
20260507055455 13 348 0.0 0.0 0.00 0.00 0.00 83 1016.1
20260507054519 13 348 0.0 0.0 0.00 0.00 0.00 82 1016.1
20260507054016 13 348 0.0 0.0 0.00 0.00 0.00 82 1016.1
20260507053737 13 348 0.0 0.0 0.00 0.00 0.00 82 1016.0
20260507053015 13 348 0.0 0.0 0.00 0.00 0.00 82 1016.1
20260507052516 13 348 0.0 0.0 0.00 0.00 0.00 81 1016.1
20260507052016 13 348 0.0 0.0 0.00 0.00 0.00 82 1016.0
20260507051510 13 348 0.0 0.0 0.00 0.00 0.00 81 1016.1
20260507051004 13 348 0.0 0.0 0.00 0.00 0.00 81 1016.0
20260507050457 13 348 0.0 0.0 0.00 0.00 0.00 82 1016.0
20260507045952 13 348 0.0 0.0 0.00 0.00 0.00 82 1016.0
20260507045446 13 348 0.0 0.0 0.00 0.00 0.00 81 1016.0
20260507044940 13 348 0.0 0.0 0.00 0.00 0.00 80 1016.0
20260507044433 14 348 0.0 0.0 0.00 0.00 0.00 79 1016.1
20260507043928 14 348 0.0 0.0 0.00 0.00 0.00 79 1016.0
20260507043652 14 348 0.0 0.0 0.00 0.00 0.00 79 1016.0
20260507042916 14 348 0.0 0.0 0.00 0.00 0.00 79 1015.9
20260507042410 14 348 0.0 0.0 0.00 0.00 0.00 79 1015.9
20260507042351 15 348 0.0 0.0 0.00 0.00 0.00 79 1015.9
20260507041357 15 348 0.0 0.0 0.00 0.00 0.00 79 1015.9
20260507040852 15 348 0.0 0.0 0.00 0.00 0.00 79 1015.9
20260507040346 15 348 0.0 0.0 0.00 0.00 0.00 79 1015.8
20260507035839 15 348 0.0 0.0 0.00 0.00 0.00 79 1015.8
20260507035558 15 348 0.0 0.0 0.00 0.00 0.00 79 1015.8
20260507034827 15 348 0.0 0.0 0.00 0.00 0.00 79 1015.8
20260507034322 15 348 0.0 0.0 0.00 0.00 0.00 79 1015.7
20260507033815 15 348 0.0 0.0 0.00 0.00 0.00 79 1015.6
20260507033527 15 348 0.0 0.0 0.00 0.00 0.00 79 1015.6
20260507032803 15 348 0.0 0.0 0.00 0.00 0.00 77 1015.5
20260507032258 16 348 0.0 0.0 0.00 0.00 0.00 77 1015.5
20260507031751 16 347 0.0 0.0 0.00 0.00 0.00 77 1015.4
20260507031245 16 347 0.0 0.0 0.00 0.00 0.00 76 1015.4
20260507030739 16 347 0.0 0.0 0.00 0.00 0.00 75 1015.4
20260507030449 16 347 0.0 0.0 0.00 0.00 0.00 75 1015.4
20260507030212 16 347 0.0 0.0 0.00 0.00 0.00 74 1015.3
20260507025659 16 347 0.0 0.0 0.00 0.00 0.00 73 1015.3
20260507024715 16 347 0.0 1.6 0.00 0.00 0.00 73 1015.3
20260507024209 16 346 0.0 1.6 0.00 0.00 0.00 73 1015.2
20260507023704 16 345 0.0 3.2 0.00 0.00 0.00 72 1015.2
20260507023157 17 345 0.0 3.2 0.00 0.00 0.00 72 1015.1
20260507022651 17 349 0.0 0.0 0.00 0.00 0.00 71 1015.1
20260507022146 17 349 0.0 0.0 0.00 0.00 0.00 71 1015.1
20260507021639 17 349 0.0 4.8 0.00 0.00 0.00 71 1015.0
20260507021356 17 348 0.0 4.8 0.00 0.00 0.00 70 1015.0
20260507020628 17 282 0.0 1.6 0.00 0.00 0.00 70 1015.0
20260507020121 17 275 0.0 1.6 0.00 0.00 0.00 69 1015.0
20260507015616 18 281 0.0 9.7 0.00 0.00 0.00 68 1014.9
20260507015109 18 273 0.0 9.7 0.00 0.00 0.00 68 1015.0
20260507014829 18 33 0.0 6.4 0.00 0.00 0.00 67 1014.9
20260507014057 18 267 0.0 1.6 0.00 0.00 0.00 66 1015.0
20260507014037 19 294 0.0 0.0 0.00 0.00 0.00 65 1014.9
20260507013046 19 295 0.0 1.6 0.00 0.00 0.00 64 1014.9
20260507012540 19 292 0.0 1.6 0.00 0.00 0.00 63 1014.9
20260507012033 20 350 0.0 0.0 0.00 0.00 0.00 62 1014.9
20260507011748 20 346 0.0 1.6 0.00 0.00 0.00 61 1014.9
20260507011021 20 343 0.0 1.6 0.00 0.00 0.00 60 1014.9
20260507010515 20 49 0.0 0.0 0.00 0.00 0.00 59 1014.9
20260507010010 20 71 0.0 0.0 0.00 0.00 0.00 59 1014.8
20260507005504 20 30 0.0 0.0 0.00 0.00 0.00 58 1014.8
20260507004957 20 30 0.0 4.8 0.00 0.00 0.00 58 1014.8
20260507004453 21 44 0.0 4.8 0.00 0.00 0.00 57 1014.8
20260507003952 21 137 1.6 17.7 0.00 0.00 0.00 58 1014.8
20260507003717 21 154 1.6 17.7 0.00 0.00 0.00 56 1014.8
20260507002953 21 175 0.0 11.3 0.00 0.00 0.00 55 1014.8
20260507002454 21 134 0.0 6.4 0.00 0.00 0.00 57 1014.7
20260507002212 21 340 0.0 6.4 0.00 0.00 0.00 58 1014.6
20260507001711 21 355 0.0 4.8 0.00 0.00 0.00 58 1014.6
20260507000953 21 64 0.0 4.8 0.00 0.00 0.00 57 1014.7
20260507000454 21 52 0.0 4.8 0.00 0.00 0.00 57 1014.6
20260506235953 21 310 0.0 4.8 0.00 0.00 0.00 57 1014.5
20260506235454 21 163 0.0 1.6 0.00 0.00 0.00 58 1014.5
20260506234950 21 19 0.0 11.3 0.00 0.00 0.00 57 1014.5
20260506234450 21 346 0.0 11.3 0.00 0.00 0.00 56 1014.5
20260506233951 21 181 0.0 1.6 0.00 0.00 0.00 57 1014.4
20260506233450 21 146 0.0 1.6 0.00 0.00 0.00 57 1014.4
20260506232951 21 76 0.0 4.8 0.00 0.00 0.00 58 1014.4
20260506232448 21 69 0.0 8.0 0.00 0.00 0.00 59 1014.5
20260506231949 21 171 0.0 8.0 0.00 0.00 0.00 59 1014.5
20260506231443 21 42 0.0 6.4 0.00 0.00 0.00 58 1014.5
20260506230938 21 263 0.0 6.4 0.00 0.00 0.00 59 1014.6
20260506230651 21 198 0.0 1.6 0.00 0.00 0.00 58 1014.5
20260506230416 22 150 0.0 4.8 0.00 0.00 0.00 57 1014.7
20260506225419 22 71 0.0 4.8 0.00 0.00 0.00 60 1014.6
20260506224913 21 5 0.0 6.4 0.00 0.00 0.00 60 1014.7
20260506224407 22 138 0.0 6.4 0.00 0.00 0.00 59 1014.7
20260506223901 22 348 0.0 8.0 0.00 0.00 0.00 58 1014.7
20260506223355 22 58 0.0 8.0 0.00 0.00 0.00 58 1014.8
20260506222850 22 109 0.0 14.5 0.00 0.00 0.00 59 1014.8
20260506222350 22 215 0.0 14.5 0.00 0.00 0.00 57 1014.8
20260506222111 22 167 0.0 4.8 0.00 0.00 0.00 57 1014.9
20260506221350 22 269 0.0 1.6 0.00 0.00 0.00 58 1014.8
20260506220852 22 290 0.0 0.0 0.00 0.00 0.00 58 1014.9
20260506220351 22 165 0.0 8.0 0.00 0.00 0.00 57 1015.0
20260506215852 22 283 0.0 8.0 0.00 0.00 0.00 58 1015.0
20260506215351 22 223 0.0 8.0 0.00 0.00 0.00 56 1015.0
20260506214853 22 348 0.0 1.6 0.00 0.00 0.00 56 1015.0
20260506214350 22 309 0.0 1.6 0.00 0.00 0.00 56 1015.1
20260506213851 22 281 0.0 1.6 0.00 0.00 0.00 55 1015.1
20260506213348 22 160 0.0 1.6 0.00 0.00 0.00 56 1015.2
20260506212849 22 13 0.0 8.0 0.00 0.00 0.00 56 1015.2
20260506212348 22 188 0.0 8.0 0.00 0.00 0.00 56 1015.2
20260506211849 22 202 0.0 8.0 0.00 0.00 0.00 58 1015.1
20260506211348 22 161 1.6 12.9 0.00 0.00 0.00 59 1015.1
20260506210849 22 258 1.6 12.9 0.00 0.00 0.00 56 1015.1
20260506210616 22 158 0.0 8.0 0.00 0.00 0.00 59 1015.1
20260506210111 22 154 0.0 6.4 0.00 0.00 0.00 57 1015.2
20260506205349 22 24 1.6 9.7 0.00 0.00 0.00 59 1015.2
20260506205104 22 324 0.0 9.7 0.00 0.00 0.00 58 1015.3
20260506204344 22 42 0.0 8.0 0.00 0.00 0.00 58 1015.3
20260506203845 22 165 1.6 12.9 0.00 0.00 0.00 57 1015.3
20260506203602 22 349 1.6 12.9 0.00 0.00 0.00 57 1015.3
20260506202845 22 74 0.0 6.4 0.00 0.00 0.00 57 1015.3
20260506202344 22 88 0.0 6.4 0.00 0.00 0.00 57 1015.4
20260506201844 23 269 0.0 6.4 0.00 0.00 0.00 55 1015.4
20260506201346 23 95 0.0 8.0 0.00 0.00 0.00 56 1015.4
20260506200846 23 167 0.0 8.0 0.00 0.00 0.00 57 1015.4
20260506200346 23 192 0.0 8.0 0.00 0.00 0.00 56 1015.4
20260506195846 23 194 0.0 8.0 0.00 0.00 0.00 54 1015.4
20260506195344 23 275 0.0 1.6 0.00 0.00 0.00 54 1015.4
20260506194845 23 16 0.0 0.0 0.00 0.00 0.00 54 1015.6
20260506194345 23 129 0.0 0.0 0.00 0.00 0.00 58 1015.6
20260506193845 23 13 0.0 0.0 0.00 0.00 0.00 58 1015.7
20260506193345 22 333 0.0 0.0 0.00 0.00 0.00 59 1015.7
20260506192842 22 305 0.0 0.0 0.00 0.00 0.00 56 1015.7
20260506192343 22 323 0.0 0.0 0.00 0.00 0.00 55 1015.8
20260506191835 22 39 0.0 0.0 0.00 0.00 0.00 55 1015.9
20260506191554 22 209 0.0 0.0 0.00 0.00 0.00 56 1015.9
20260506190834 22 49 0.0 0.0 0.00 0.00 0.00 54 1015.9
20260506190602 22 351 0.0 0.0 0.00 0.00 0.00 55 1016.0
20260506190053 22 0 0.0 0.0 0.00 0.00 0.00 54 1016.0
20260506185328 22 63 0.0 0.0 0.00 0.00 0.00 53 1016.1
20260506185307 22 76 0.0 0.0 0.00 0.00 0.00 56 1016.2
20260506184326 22 22 0.0 0.0 0.00 0.00 0.00 57 1016.2
20260506184041 22 11 0.0 1.6 0.00 0.00 0.00 60 1016.2
20260506183816 21 18 0.0 1.6 0.00 0.00 0.00 59 1016.3
20260506182820 21 85 0.0 0.0 0.00 0.00 0.00 57 1016.3
20260506182333 21 39 0.0 0.0 0.00 0.00 0.00 59 1016.3
20260506181822 21 41 0.0 0.0 0.00 0.00 0.00 59 1016.4
20260506181319 21 310 0.0 0.0 0.00 0.00 0.00 57 1016.5
20260506181041 21 25 0.0 0.0 0.00 0.00 0.00 57 1016.5
20260506180542 21 19 0.0 0.0 0.00 0.00 0.00 59 1016.5
20260506175820 21 338 0.0 3.2 0.00 0.00 0.00 58 1016.5
20260506175316 20 235 0.0 3.2 0.00 0.00 0.00 59 1016.5
20260506174817 20 36 0.0 0.0 0.00 0.00 0.00 58 1016.5
20260506174310 20 35 0.0 1.6 0.00 0.00 0.00 60 1016.7
20260506173804 20 36 0.0 1.6 0.00 0.00 0.00 61 1016.8
20260506173258 20 15 0.0 0.0 0.00 0.00 0.00 59 1017.0
20260506173227 20 355 0.0 0.0 0.00 0.00 0.00 60 1017.1
20260506172254 20 44 0.0 0.0 0.00 0.00 0.00 61 1017.1
20260506171749 20 44 0.0 3.2 0.00 0.00 0.00 64 1017.1
20260506171248 20 40 0.0 3.2 0.00 0.00 0.00 63 1017.2
20260506171011 20 18 0.0 1.6 0.00 0.00 0.00 66 1017.1